TimeCDT,TemperatureF,Dew PointF,Humidity,Sea Level PressureIn,VisibilityMPH,Wind Direction,Wind SpeedMPH,Gust SpeedMPH,PrecipitationIn,Events,Conditions,WindDirDegrees,DateUTC
12:52 AM,48.9,42.1,77,30.03,10.0,Calm,Calm,-,N/A,,Clear,0,2013-05-08 05:52:00
1:52 AM,50.0,43.0,77,30.03,10.0,Calm,Calm,-,N/A,,Clear,0,2013-05-08 06:52:00
2:52 AM,48.0,43.0,83,30.02,10.0,Calm,Calm,-,N/A,,Clear,0,2013-05-08 07:52:00
3:52 AM,48.9,43.0,80,30.02,9.0,Calm,Calm,-,N/A,,Clear,0,2013-05-08 08:52:00
4:52 AM,48.9,43.0,80,30.02,10.0,Calm,Calm,-,N/A,,Clear,0,2013-05-08 09:52:00
5:52 AM,48.0,43.0,83,30.04,8.0,Calm,Calm,-,N/A,,Clear,0,2013-05-08 10:52:00
6:52 AM,53.1,46.0,77,30.05,9.0,Calm,Calm,-,N/A,,Clear,0,2013-05-08 11:52:00
7:52 AM,61.0,46.9,60,30.06,10.0,Calm,Calm,-,N/A,,Clear,0,2013-05-08 12:52:00
8:52 AM,66.0,46.0,48,30.06,10.0,Calm,Calm,-,N/A,,Clear,0,2013-05-08 13:52:00
9:52 AM,72.0,46.9,41,30.05,10.0,Calm,Calm,-,N/A,,Clear,0,2013-05-08 14:52:00
10:52 AM,75.0,44.1,33,30.05,10.0,Calm,Calm,-,N/A,,Clear,0,2013-05-08 15:52:00
11:52 AM,75.0,48.0,38,30.04,10.0,Variable,5.8,-,N/A,,Clear,0,2013-05-08 16:52:00
12:52 PM,75.0,46.9,37,30.03,10.0,East,6.9,-,N/A,,Clear,80,2013-05-08 17:52:00
1:52 PM,75.9,46.0,35,30.02,10.0,ENE,9.2,-,N/A,,Clear,60,2013-05-08 18:52:00
2:52 PM,75.0,42.1,31,30.01,10.0,East,10.4,-,N/A,,Clear,90,2013-05-08 19:52:00
3:52 PM,75.0,39.9,28,30.00,10.0,East,9.2,-,N/A,,Clear,90,2013-05-08 20:52:00
4:52 PM,73.9,39.9,29,30.00,10.0,ENE,6.9,-,N/A,,Clear,70,2013-05-08 21:52:00
5:52 PM,73.0,41.0,31,29.99,10.0,ESE,8.1,-,N/A,,Clear,120,2013-05-08 22:52:00
6:52 PM,70.0,44.1,39,29.99,10.0,East,5.8,-,N/A,,Clear,90,2013-05-08 23:52:00
7:52 PM,66.9,44.1,44,29.99,10.0,Calm,Calm,-,N/A,,Clear,0,2013-05-09 00:52:00
8:52 PM,64.0,45.0,50,30.00,10.0,Calm,Calm,-,N/A,,Clear,0,2013-05-09 01:52:00
9:52 PM,61.0,45.0,56,30.01,10.0,Calm,Calm,-,N/A,,Clear,0,2013-05-09 02:52:00
10:52 PM,57.9,44.1,60,30.00,10.0,Calm,Calm,-,N/A,,Clear,0,2013-05-09 03:52:00
11:52 PM,55.9,44.1,64,29.99,10.0,Calm,Calm,-,N/A,,Clear,0,2013-05-09 04:52:00